SCP
0 0 0 0 0 0 0 0 0 0 0 0 0 0 0 0 0 0 0 0 0 0 0 0 0 0 0 0 0 0 0 0 0 0 0 0 0 0
0 0 0 0 0 0 0 0 0 0 0 0 0 0 0 0 0 0 0 0 0 0 0 0 0 0 0 0 0 0 0 0 0 0 0 0 0 0
0 0 0 0 0 0 0 0 0 0 0 0 0 0 0 0 0 0 0 0 0 0 0 0 0 0 0 0 0 0 0 0 0 0 0 0 0 0
0 0 0 0 0 0 0 0 0 0 0 0 0 0 0 0 0 0 0 0 0 0 0 0 0 0 0 0 0 0 0 0 0 0 0 0 0 0
0 0 0 0 0 0 0 0 0 0 0 0 0 0 0 0 0 0 -0 0 0 0 0 0 0 0 0 0 0 0 0 0 0 0 0 0 0 0
0 0 0 0 0 0 0 0 0 0 0 0 0 0 0 0 0 -0 0 0 0 0 0 0 -0 0 0 0 0 0 0 0 0 0 0 0 0 0
0 0 0 0 0 0 0 0 0 0 0 0 0 0 0 0 0 0 0 0 0 -0 -0 0 0 0 0 0 0 0 0 0 0 0 0 0 0 0
0 0 0 0 0 0 0 0 0 0 0 0 0 0 0 0 0 0 0 -0 -0 -0 0 0 0 0 0 0 0 0 0 0 0 0 0 0 0 0
0 0 0 0 0 0 0 0 0 0 0 0 0 0 0 0 0 0 0 0 0 0 0 0 0 0 0 0 0 0 0 0 0 0 0 0 0 0
0 0 0 0 0 0 0 0 0 0 0 0 0 0 0 0 0 0 0 0 0 0 0 0 0 0 0 0 0 0 0 0 0 0 0 0 0 0
0 0 0 0 0 0 0 0 0 0 0 0 0 0 0 0 0 0 0 0 0 0 0 0 0 0 0 0 0 0 0 0 0 0 0 0 0 0
0 0 0 0 0 0 0 0 0 0 0 0 0 0 0 0 0 0 0 0 0 0 0 0 0 0 0 0 0 0 0 0 0 0 0 0 0 0
0 0 0 0 0 0 0 0 0 0 0 0 0 0 0 0 0 0 0 0 0 0 0 0 0 0 0 -0 -0 0 0 0 0 0 0 0 0 0
0 0 0 0 0 0 0 0 0 0 0 0 0 0 0 0 0 0 0 0 0 0 0 0 0 0 -0 -0 -0 0 0 0 0 0 0 0 0 0
0 0 0 0 0 0 0 0 0 0 0 0 0 0 0 0 0 0 0 0 0 0 0 0 0 -0 -0 -0 0 0 -0 0 0 0 0 0 0 0
0 0 0 0 0 0 0 0 0 0 0 0 0 0 0 0 0 0 0 0 0 0 0 0 0 -0 0 0 0 0 0 0 0 0 0 0 0 0
0 0 0 0 0 0 0 0 0 0 0 0 0 0 0 0 0 0 0 0 0 -0 -0 0 0 0 0 0 0 0 0 0 0 0 0 0 0 0
0 0 0 0 0 0 0 0 0 0 0 0 0 0 0 0 0 0 0 0 -0 -0 -0 0 -0 0 0 0 0 0 0 0 0 0 0 0 0 0
0 0 0 0 0 0 0 0 0 0 0 0 0 0 0 0 0 0 -0 -0 -0 -0 0 -0 0 0 0 -0 -0 0 0 -0 0 0 0 0 0 0
0 0 0 0 0 0 0 0 0 0 0 0 0 0 0 0 0 -0 -0 -0 -0 -0 0 -0 0 0 0 -0 -0 -0 -0 0 0 0 0 0 0 -0
0 0 0 0 0 0 0 0 0 0 0 0 0 0 0 0 0 -0 -0 -0 -0 -0 -0 -0 0 -0 -0 0 -0 0 0 -0 -0 0 0 0 0 0
0 0 0 0 0 0 0 0 0 0 0 0 0 0 0 0 -0 -0 -0 -0 -0 0 -0 -0 -0 -0 0 0 0 -0 -0 -0 -0 -0 -0 -0 0 0
0 0 0 0 0 0 0 0 0 0 0 0 0 0 0 0 -0 -0 -0 -0 -0 0 0 -0 -0 -0 -0 0 -0 -0 -0 -0 -0 0 0 -0 -0 -0
Wind_Speed_500mb
16 13 13 15 13 13 13 18 31 22 21 20 17 20 31 33 29 26 27 28 30 33 32 37 38 42 47 52 56 57 61 60 55 48 51 56 58 55
16 12 15 13 10 9 6 5 6 8 9 11 18 28 29 30 30 31 33 33 33 35 44 49 43 48 55 60 63 62 63 63 65 63 57 55 59 64
18 17 15 12 8 6 5 1 3 6 8 12 18 25 29 33 34 36 40 40 43 46 43 47 59 62 64 64 64 67 70 70 71 71 70 68 59 64
11 9 7 6 5 5 5 5 13 15 19 26 30 35 37 42 47 50 52 49 49 46 55 64 67 68 67 69 69 68 70 72 75 77 74 71 69 60
8 1 2 3 1 5 12 13 17 23 28 34 42 46 50 54 61 66 65 62 59 63 68 72 70 65 64 68 70 70 69 67 67 72 76 75 77 78
1 2 2 5 10 14 19 22 27 34 39 43 47 54 60 64 75 82 79 72 74 71 71 67 60 67 74 76 77 74 71 69 69 69 73 78 84 85
4 7 12 15 16 20 26 28 30 38 43 49 52 61 67 73 83 79 73 73 73 73 73 69 76 79 87 95 92 80 76 76 76 77 78 75 80 86
14 16 19 21 17 21 27 31 33 42 48 53 55 58 62 70 69 61 64 74 90 81 83 86 84 89 99 104 96 91 91 89 84 82 80 82 82 85
15 19 23 18 20 26 32 37 41 45 48 53 56 56 63 57 53 60 67 72 74 77 78 97 86 103 106 105 103 106 102 92 86 82 80 82 87 93
25 25 29 30 29 32 42 48 48 48 50 50 49 59 60 46 49 58 68 73 77 85 68 94 95 107 101 105 111 110 106 96 84 84 89 92 94 94
34 39 42 46 40 42 49 48 48 47 44 46 58 53 46 46 47 58 65 72 84 80 74 84 98 105 114 110 104 119 112 97 92 98 92 88 86 87
42 46 48 51 51 49 54 49 51 50 53 56 52 46 48 50 50 51 58 63 69 92 77 84 100 100 121 106 113 120 110 99 103 98 88 85 82 83
50 49 59 60 56 43 49 48 50 51 54 48 49 51 50 51 52 51 45 64 73 84 89 86 97 101 103 107 114 117 108 111 109 99 89 82 76 69
44 40 43 49 51 42 42 42 47 51 44 44 45 51 51 56 49 54 66 72 79 81 76 87 89 96 105 114 116 116 114 113 104 96 80 65 64 63
36 37 40 30 28 34 41 46 32 30 36 45 49 53 58 58 63 62 69 82 73 77 85 88 84 92 102 108 113 116 116 112 91 71 82 76 69 60
27 27 28 29 32 38 23 19 19 33 41 47 53 55 56 60 56 65 79 78 84 94 98 90 89 89 99 95 101 113 106 104 94 80 71 70 67 57
27 28 28 25 27 16 19 22 28 32 39 47 50 50 55 55 61 69 69 76 85 101 112 105 100 88 84 88 92 89 87 93 77 74 71 72 62 64
28 27 16 15 17 20 24 30 31 33 40 45 44 48 52 57 68 69 68 78 96 106 104 109 98 91 93 93 57 69 86 88 85 80 63 77 67 55
25 21 23 23 25 28 32 33 35 36 44 43 44 49 52 65 66 64 74 88 100 97 103 96 85 82 88 99 100 64 84 79 83 68 65 53 63 49
27 25 30 29 30 34 33 34 34 42 43 43 40 49 61 61 60 67 80 91 93 98 101 86 78 79 88 96 102 85 60 79 67 63 44 39 35 35
34 37 34 35 38 37 36 33 42 47 42 39 47 55 57 56 62 72 84 86 86 91 88 83 75 75 86 85 81 84 68 61 43 40 45 32 30 21
47 44 42 43 47 45 44 48 50 45 42 46 49 52 54 56 65 76 81 81 85 81 76 73 72 77 86 83 85 78 70 60 28 26 28 18 17 7
64 53 49 51 53 51 50 50 53 47 38 44 48 49 52 60 68 75 77 77 79 73 67 73 71 72 82 83 76 69 58 53 35 52 52 30 11 16
Wind_Direction_500mb
161 154 157 150 154 154 161 165 187 187 189 218 263 286 308 315 315 315 315 316 322 320 320 321 319 311 311 311 309 308 309 308 302 294 287 284 283 275
156 154 156 152 152 158 173 202 209 203 202 257 291 307 316 321 322 317 315 319 316 309 308 311 316 314 313 311 308 304 301 301 300 297 289 283 279 278
143 142 149 149 150 152 128 201 311 309 313 328 332 336 341 338 335 330 324 318 313 312 310 311 312 313 312 311 307 303 300 297 296 293 290 286 276 272
125 124 124 132 134 80 29 347 16 353 336 337 333 335 339 336 334 332 331 326 320 315 311 311 313 312 310 305 299 295 292 292 293 293 291 287 283 269
139 118 359 337 322 338 351 349 340 353 341 334 333 335 335 337 336 332 329 324 320 316 314 314 317 316 315 315 308 303 299 293 287 286 284 280 279 278
197 242 358 312 315 322 330 327 326 335 337 332 328 329 332 334 335 333 326 324 320 319 319 322 323 320 318 320 318 311 307 301 294 286 281 276 274 273
318 329 341 316 305 302 300 316 313 320 322 324 325 325 329 334 331 328 322 323 322 324 327 325 325 322 325 326 322 315 308 303 299 294 286 275 270 270
341 334 325 307 301 290 288 296 299 306 312 313 314 317 322 325 324 322 323 323 320 323 325 317 321 319 325 324 320 316 310 306 301 294 287 283 279 273
312 320 318 298 294 298 298 297 297 298 300 299 301 312 315 320 320 319 318 315 311 317 318 311 316 318 321 319 318 314 312 308 302 296 291 285 280 277
296 309 308 299 294 305 308 301 296 290 294 292 302 309 309 311 315 314 312 309 306 314 319 307 316 313 315 314 314 313 313 308 303 300 295 289 283 278
296 295 293 291 293 293 300 299 295 293 292 297 303 304 305 308 306 307 308 309 307 309 311 308 312 311 314 311 311 314 311 309 305 302 296 291 287 280
286 285 282 276 280 286 297 292 288 293 302 301 297 294 299 301 305 305 304 303 308 308 313 310 313 314 309 308 308 312 311 309 309 305 297 291 283 276
285 289 282 276 273 285 292 285 292 302 303 299 303 301 302 306 306 306 306 312 313 307 311 313 310 308 303 306 306 309 309 311 309 303 298 293 287 276
278 285 281 286 284 289 288 297 299 299 300 302 304 309 308 311 312 309 316 316 311 308 308 312 307 309 308 303 301 311 311 309 306 303 297 298 296 290
275 273 281 283 288 290 292 294 291 302 306 308 312 312 315 316 311 313 312 316 314 311 317 318 312 310 305 299 297 304 307 308 307 298 304 302 302 288
285 280 280 281 287 293 282 279 280 304 309 310 310 311 313 314 308 311 318 321 320 322 324 322 318 313 310 312 309 302 304 294 309 304 299 299 297 274
283 283 286 289 290 262 269 279 292 295 299 304 307 308 312 311 311 320 317 321 321 322 325 326 327 322 319 319 312 312 310 313 316 313 303 298 292 272
291 286 255 259 266 276 280 284 284 291 299 306 303 304 308 312 318 317 319 320 324 326 326 329 329 327 330 325 315 306 317 323 325 319 307 298 289 270
297 248 247 257 272 277 281 282 288 298 306 302 297 306 310 318 322 319 320 324 326 326 327 329 329 332 321 316 330 342 324 330 326 319 320 301 279 285
280 265 254 259 271 271 268 280 288 297 299 295 297 308 316 321 318 319 324 327 327 328 328 330 331 332 324 316 321 335 345 330 327 320 320 308 295 293
275 256 253 255 266 273 269 271 283 293 295 296 306 314 319 316 316 322 326 328 328 330 328 329 332 336 340 342 330 335 339 353 328 316 340 321 310 301
265 258 250 255 261 261 263 277 290 291 292 304 310 316 316 314 319 325 328 329 330 330 329 331 336 342 349 345 340 344 341 354 339 317 305 313 292 281
260 254 238 248 257 258 269 288 294 287 292 306 312 313 310 316 322 327 329 329 332 331 336 335 339 346 351 353 353 354 349 360 34 48 24 28 349 115
Wind_Speed_850mb
16 13 13 15 13 13 13 18 31 22 21 20 17 20 31 33 29 26 27 28 30 33 32 37 38 42 47 52 56 57 61 60 55 48 51 56 58 55
16 12 15 13 10 9 6 5 6 8 9 11 18 28 29 30 30 31 33 33 33 35 44 49 43 48 55 60 63 62 63 63 65 63 57 55 59 64
18 17 15 12 8 6 5 1 3 6 8 12 18 25 29 33 34 36 40 40 43 46 43 47 59 62 64 64 64 67 70 70 71 71 70 68 59 64
11 9 7 6 5 5 5 5 13 15 19 26 30 35 37 42 47 50 52 49 49 46 55 64 67 68 67 69 69 68 70 72 75 77 74 71 69 60
8 1 2 3 1 5 12 13 17 23 28 34 42 46 50 54 61 66 65 62 59 63 68 72 70 65 64 68 70 70 69 67 67 72 76 75 77 78
1 2 2 5 10 14 19 22 27 34 39 43 47 54 60 64 75 82 79 72 74 71 71 67 60 67 74 76 77 74 71 69 69 69 73 78 84 85
4 7 12 15 16 20 26 28 30 38 43 49 52 61 67 73 83 79 73 73 73 73 73 69 76 79 87 95 92 80 76 76 76 77 78 75 80 86
14 16 19 21 17 21 27 31 33 42 48 53 55 58 62 70 69 61 64 74 90 81 83 86 84 89 99 104 96 91 91 89 84 82 80 82 82 85
15 19 23 18 20 26 32 37 41 45 48 53 56 56 63 57 53 60 67 72 74 77 78 97 86 103 106 105 103 106 102 92 86 82 80 82 87 93
25 25 29 30 29 32 42 48 48 48 50 50 49 59 60 46 49 58 68 73 77 85 68 94 95 107 101 105 111 110 106 96 84 84 89 92 94 94
34 39 42 46 40 42 49 48 48 47 44 46 58 53 46 46 47 58 65 72 84 80 74 84 98 105 114 110 104 119 112 97 92 98 92 88 86 87
42 46 48 51 51 49 54 49 51 50 53 56 52 46 48 50 50 51 58 63 69 92 77 84 100 100 121 106 113 120 110 99 103 98 88 85 82 83
50 49 59 60 56 43 49 48 50 51 54 48 49 51 50 51 52 51 45 64 73 84 89 86 97 101 103 107 114 117 108 111 109 99 89 82 76 69
44 40 43 49 51 42 42 42 47 51 44 44 45 51 51 56 49 54 66 72 79 81 76 87 89 96 105 114 116 116 114 113 104 96 80 65 64 63
36 37 40 30 28 34 41 46 32 30 36 45 49 53 58 58 63 62 69 82 73 77 85 88 84 92 102 108 113 116 116 112 91 71 82 76 69 60
27 27 28 29 32 38 23 19 19 33 41 47 53 55 56 60 56 65 79 78 84 94 98 90 89 89 99 95 101 113 106 104 94 80 71 70 67 57
27 28 28 25 27 16 19 22 28 32 39 47 50 50 55 55 61 69 69 76 85 101 112 105 100 88 84 88 92 89 87 93 77 74 71 72 62 64
28 27 16 15 17 20 24 30 31 33 40 45 44 48 52 57 68 69 68 78 96 106 104 109 98 91 93 93 57 69 86 88 85 80 63 77 67 55
25 21 23 23 25 28 32 33 35 36 44 43 44 49 52 65 66 64 74 88 100 97 103 96 85 82 88 99 100 64 84 79 83 68 65 53 63 49
27 25 30 29 30 34 33 34 34 42 43 43 40 49 61 61 60 67 80 91 93 98 101 86 78 79 88 96 102 85 60 79 67 63 44 39 35 35
34 37 34 35 38 37 36 33 42 47 42 39 47 55 57 56 62 72 84 86 86 91 88 83 75 75 86 85 81 84 68 61 43 40 45 32 30 21
47 44 42 43 47 45 44 48 50 45 42 46 49 52 54 56 65 76 81 81 85 81 76 73 72 77 86 83 85 78 70 60 28 26 28 18 17 7
64 53 49 51 53 51 50 50 53 47 38 44 48 49 52 60 68 75 77 77 79 73 67 73 71 72 82 83 76 69 58 53 35 52 52 30 11 16
Wind_Direction_850mb
161 154 157 150 154 154 161 165 187 187 189 218 263 286 308 315 315 315 315 316 322 320 320 321 319 311 311 311 309 308 309 308 302 294 287 284 283 275
156 154 156 152 152 158 173 202 209 203 202 257 291 307 316 321 322 317 315 319 316 309 308 311 316 314 313 311 308 304 301 301 300 297 289 283 279 278
143 142 149 149 150 152 128 201 311 309 313 328 332 336 341 338 335 330 324 318 313 312 310 311 312 313 312 311 307 303 300 297 296 293 290 286 276 272
125 124 124 132 134 80 29 347 16 353 336 337 333 335 339 336 334 332 331 326 320 315 311 311 313 312 310 305 299 295 292 292 293 293 291 287 283 269
139 118 359 337 322 338 351 349 340 353 341 334 333 335 335 337 336 332 329 324 320 316 314 314 317 316 315 315 308 303 299 293 287 286 284 280 279 278
197 242 358 312 315 322 330 327 326 335 337 332 328 329 332 334 335 333 326 324 320 319 319 322 323 320 318 320 318 311 307 301 294 286 281 276 274 273
318 329 341 316 305 302 300 316 313 320 322 324 325 325 329 334 331 328 322 323 322 324 327 325 325 322 325 326 322 315 308 303 299 294 286 275 270 270
341 334 325 307 301 290 288 296 299 306 312 313 314 317 322 325 324 322 323 323 320 323 325 317 321 319 325 324 320 316 310 306 301 294 287 283 279 273
312 320 318 298 294 298 298 297 297 298 300 299 301 312 315 320 320 319 318 315 311 317 318 311 316 318 321 319 318 314 312 308 302 296 291 285 280 277
296 309 308 299 294 305 308 301 296 290 294 292 302 309 309 311 315 314 312 309 306 314 319 307 316 313 315 314 314 313 313 308 303 300 295 289 283 278
296 295 293 291 293 293 300 299 295 293 292 297 303 304 305 308 306 307 308 309 307 309 311 308 312 311 314 311 311 314 311 309 305 302 296 291 287 280
286 285 282 276 280 286 297 292 288 293 302 301 297 294 299 301 305 305 304 303 308 308 313 310 313 314 309 308 308 312 311 309 309 305 297 291 283 276
285 289 282 276 273 285 292 285 292 302 303 299 303 301 302 306 306 306 306 312 313 307 311 313 310 308 303 306 306 309 309 311 309 303 298 293 287 276
278 285 281 286 284 289 288 297 299 299 300 302 304 309 308 311 312 309 316 316 311 308 308 312 307 309 308 303 301 311 311 309 306 303 297 298 296 290
275 273 281 283 288 290 292 294 291 302 306 308 312 312 315 316 311 313 312 316 314 311 317 318 312 310 305 299 297 304 307 308 307 298 304 302 302 288
285 280 280 281 287 293 282 279 280 304 309 310 310 311 313 314 308 311 318 321 320 322 324 322 318 313 310 312 309 302 304 294 309 304 299 299 297 274
283 283 286 289 290 262 269 279 292 295 299 304 307 308 312 311 311 320 317 321 321 322 325 326 327 322 319 319 312 312 310 313 316 313 303 298 292 272
291 286 255 259 266 276 280 284 284 291 299 306 303 304 308 312 318 317 319 320 324 326 326 329 329 327 330 325 315 306 317 323 325 319 307 298 289 270
297 248 247 257 272 277 281 282 288 298 306 302 297 306 310 318 322 319 320 324 326 326 327 329 329 332 321 316 330 342 324 330 326 319 320 301 279 285
280 265 254 259 271 271 268 280 288 297 299 295 297 308 316 321 318 319 324 327 327 328 328 330 331 332 324 316 321 335 345 330 327 320 320 308 295 293
275 256 253 255 266 273 269 271 283 293 295 296 306 314 319 316 316 322 326 328 328 330 328 329 332 336 340 342 330 335 339 353 328 316 340 321 310 301
265 258 250 255 261 261 263 277 290 291 292 304 310 316 316 314 319 325 328 329 330 330 329 331 336 342 349 345 340 344 341 354 339 317 305 313 292 281
260 254 238 248 257 258 269 288 294 287 292 306 312 313 310 316 322 327 329 329 332 331 336 335 339 346 351 353 353 354 349 360 34 48 24 28 349 115